Date,TemperatureHighF,TemperatureAvgF,TemperatureLowF,DewpointHighF,DewpointAvgF,DewpointLowF,HumidityHigh,HumidityAvg,HumidityLow,PressureMaxIn,PressureMinIn,WindSpeedMaxMPH,WindSpeedAvgMPH,GustSpeedMaxMPH,PrecipitationSumIn
2013-3-3,34.0,26.6,19.0,10.0,7.1,5.0,55,43,34,30.11,29.96,17,8,17,0.00
2013-3-4,29.0,25.5,22.0,27.0,18.3,6.0,93,75,45,29.99,29.87,24,10,24,0.00
2013-3-5,32.0,27.1,23.0,22.0,17.2,13.0,83,67,51,30.22,29.93,15,5,15,0.00
2013-3-6,30.0,20.3,2.0,15.0,7.5,-8.0,73,58,43,30.40,30.22,13,6,14,0.00
2013-3-7,29.0,14.1,-3.0,13.0,2.4,-13.0,75,60,46,30.37,30.28,13,4,16,0.00
2013-3-8,38.0,28.1,15.0,26.0,17.8,9.0,80,66,48,30.31,30.08,16,7,20,0.04
2013-3-9,36.0,35.0,33.0,35.0,32.5,26.0,96,91,74,30.11,29.69,18,6,20,0.67
2013-3-10,35.0,33.2,30.0,34.0,31.4,27.0,98,93,75,29.84,29.69,22,9,23,0.12
2013-3-11,34.0,27.9,19.0,29.0,21.0,8.0,98,77,50,29.87,29.69,0,0,0,0.04
2013-3-12,32.0,24.5,18.0,19.0,11.1,7.0,70,57,42,30.16,29.84,21,7,24,0.00
2013-3-13,31.0,19.6,10.0,11.0,6.2,1.0,71,56,42,30.37,30.16,13,6,18,0.00
2013-3-14,44.0,29.9,17.0,21.0,16.7,10.0,78,59,40,30.28,30.02,14,4,14,0.00
2013-3-15,43.0,33.4,25.0,29.0,24.0,19.0,83,70,46,30.02,29.75,13,4,13,0.00
2013-3-16,33.0,25.9,18.0,31.0,15.2,3.0,95,66,44,30.19,29.81,14,8,19,0.00
2013-3-17,32.0,21.7,10.0,17.0,6.5,-3.0,60,52,43,30.19,29.87,19,8,26,0.00
2013-3-18,33.0,24.8,13.0,26.0,12.9,-1.0,86,61,43,29.90,29.63,23,12,29,0.00
2013-3-19,26.0,15.2,7.0,6.0,-0.8,-7.0,56,49,40,30.19,29.87,23,12,27,0.00
2013-3-20,22.0,12.9,6.0,1.0,-5.0,-10.0,46,44,38,30.22,30.11,23,11,24,0.00
2013-3-21,28.0,14.1,2.0,6.0,-3.5,-14.0,54,45,37,30.14,30.02,9,3,12,0.00
2013-3-22,32.0,18.7,4.0,10.0,1.7,-9.0,60,47,39,30.08,30.02,9,2,9,0.00
2013-3-23,39.0,26.9,14.0,16.0,10.7,6.0,76,51,37,30.14,30.05,9,4,10,0.00
2013-3-24,34.0,28.2,24.0,21.0,16.3,13.0,74,61,51,30.08,29.90,15,8,16,0.00
2013-3-25,35.0,28.8,23.0,17.0,12.5,10.0,67,50,42,30.19,29.96,16,10,19,0.00
2013-3-26,40.0,27.7,19.0,18.0,15.5,12.0,79,61,40,30.28,30.19,10,4,13,0.00
2013-3-27,42.0,29.0,18.0,25.0,16.4,13.0,86,62,39,30.34,30.28,9,2,12,0.00
2013-3-28,44.0,33.0,21.0,23.0,18.4,14.0,79,56,40,30.34,30.25,11,4,13,0.00
2013-3-29,55.0,40.4,29.0,31.0,24.0,16.0,68,53,38,30.28,30.11,14,4,14,0.00
2013-3-30,54.0,43.7,37.0,43.0,30.8,-99.9,85,63,50,30.11,29.87,13,7,17,0.00
2013-3-31,41.0,34.5,26.0,32.0,22.1,9.0,94,63,39,30.05,29.84,27,10,27,0.00